Regional Weather Roundup
Issued by NWS

Home | Current Version | Previous Version | Text Only | Print | Product List | Glossary On
Versions: 1 2 3 4 5 6 7 8 9 10 11 12 13 14 15 16 17 18 19 20 21 22 23 24 25 26 27 28 29 30 31 32 33 34 35 36 37 38 39 40 41 42 43 44 45 46 47 48 49 50
365
ASUS43 KTOP 311559
RWRKS

WEATHER ROUNDUP FOR KANSAS
NATIONAL WEATHER SERVICE GOODLAND KS
1100 AM CDT TUE MAY 31 2016

NOTE:  "FAIR" INDICATES FEW OR NO CLOUDS BELOW 12,000 FEET WITH NO
SIGNIFICANT WEATHER AND/OR OBSTRUCTIONS TO VISIBILITY.

KSZ001>006-013>018-027>032-041>047-311700-
NORTHWEST KANSAS

CITY           SKY/WX    TMP DP  RH WIND       PRES   REMARKS
GOODLAND       SUNNY     61  47  59 N13       30.09F
HAYS           CLOUDY    66  54  63 N14       30.00R
HILL CITY      CLOUDY    66  51  58 N16       30.04S
RUSSELL        MOSUNNY   67  60  78 N15       29.97S
$$

KSZ061>065-074>080-084>089-311700-
SOUTHWEST KANSAS

CITY           SKY/WX    TMP DP  RH WIND       PRES   REMARKS
DODGE CITY     PTSUNNY   67  59  75 N15       29.99F
ELKHART          N/A     65  54  68 N10         N/A
GARDEN CITY    CLOUDY    65  56  72 N16       30.01F
GREAT BEND     CLOUDY    66  55  68 N7        29.97F
LIBERAL        CLOUDY    63  54  72 NE6       30.04R
$$

KSZ066>073-081>083-090>101-311700-
SOUTHEAST KANSAS

CITY           SKY/WX    TMP DP  RH WIND       PRES   REMARKS
CHANUTE        CLOUDY    71  65  81 SW13      29.96S
COFFEYVILLE    LGT RAIN  66  65  96 E6        29.93F FOG
HUTCHINSON     CLOUDY    69  62  78 W5        29.97S
MEDICINE LODGE   N/A     71  59  65 N13       29.93F
NEWTON         CLOUDY    64  57  77 N14       29.98S
PARSONS        TSTM      66  65  96 SE7       29.95F VSB 3/4
WICHITA INTL   CLOUDY    70  61  73 CALM      29.93F
WICHITA JABRA  CLOUDY    65  61  87 E3        29.93F
WINFIELD       CLOUDY    69  63  81 N9        29.93S
$$

KSZ007>012-019>026-033>040-048>060-102>105-311700-
NORTHEAST KANSAS

CITY           SKY/WX    TMP DP  RH WIND       PRES   REMARKS
CONCORDIA      CLOUDY    68  60  75 N7        29.97S
EMPORIA        CLOUDY    66  63  90 NW7       29.96S
LAWRENCE       CLOUDY    69  63  81 S5        29.96F
MANHATTAN      CLOUDY    70  59  68 VRB3      29.96S
OLATHE IND     CLOUDY    70  63  78 CALM      29.97S
OLATHE EXE     CLOUDY    69  63  81 CALM      29.97S
SALINA         CLOUDY    67  62  84 E6        29.99R
TOPEKA BILLARD CLOUDY    72  62  71 CALM      29.95F
TOPEKA FORBES  CLOUDY    72  63  73 W3        29.95F
$$




USA.gov is the U.S. government's official web portal to all federal, state and local government web resources and services.